Temperature
15 16 16 17 13 11 14 15 16 17 17 18 18 18 16 16 16 16 15 15 15 15 15 15 15 15 15 15 15 15 15 15 15 15 15 15 15 15 15 15 15 15 15 15 15 15 15 15 15
15 16 16 16 11 12 14 14 16 16 18 18 18 18 16 15 15 15 15 15 15 15 15 15 15 15 15 15 15 15 15 15 15 15 15 15 15 15 15 15 15 15 15 15 15 15 15 15 14
15 16 16 11 12 13 15 15 15 17 18 18 17 17 16 15 15 15 15 15 15 15 15 15 15 15 15 15 15 15 15 15 15 15 15 15 15 15 15 15 14 14 14 15 15 14 14 14 14
16 16 15 11 13 14 15 15 16 17 18 18 17 15 15 15 15 15 15 15 15 15 14 14 14 15 15 15 15 15 15 15 15 15 15 14 14 15 14 14 14 14 14 14 14 14 14 14 14
15 15 12 12 13 14 14 15 16 15 16 17 17 15 14 14 15 15 15 15 15 14 14 14 14 14 14 14 14 15 15 15 15 14 14 14 14 14 14 14 14 14 14 14 14 14 14 14 14
15 12 11 12 13 14 14 16 16 15 15 16 16 14 14 14 14 14 14 14 14 14 14 14 14 14 14 14 14 14 14 14 14 14 14 14 14 14 14 14 14 14 14 14 14 14 14 14 14
14 10 11 13 13 14 15 16 15 14 14 15 16 14 13 13 14 14 14 14 14 14 14 13 13 13 13 14 14 14 14 14 14 13 14 14 14 14 14 14 14 14 14 14 14 14 13 13 14
14 10 12 12 13 14 14 15 15 15 14 15 15 13 12 13 13 13 13 13 13 13 13 13 13 13 13 13 13 13 13 13 13 13 13 13 13 13 13 14 14 14 14 14 13 13 13 13 13
14 10 11 12 13 13 13 14 14 14 14 14 13 13 13 13 13 13 13 13 13 13 13 13 13 13 13 13 13 13 13 13 13 13 13 13 13 13 13 13 13 13 13 13 13 13 13 13 13
13 9 11 12 12 12 12 13 13 13 12 12 12 13 13 13 13 13 13 13 12 12 12 12 12 12 12 12 12 12 12 12 12 12 12 12 12 12 13 13 13 13 13 13 13 13 13 13 13
12 10 11 12 13 13 12 12 12 12 11 11 11 12 12 12 12 12 12 12 12 12 12 12 12 12 12 12 12 12 12 12 12 12 12 12 12 12 12 12 12 12 13 13 13 12 13 13 13
11 11 11 12 12 12 12 11 11 11 11 11 12 12 11 11 11 11 12 12 12 11 11 11 11 11 11 11 12 12 12 12 12 12 12 12 12 12 12 12 12 12 12 12 12 12 12 12 12
10 10 11 11 11 11 11 11 10 10 11 11 11 11 11 10 11 11 11 11 11 11 11 11 11 11 11 11 11 11 11 11 11 11 11 11 12 12 12 12 12 12 12 12 12 12 12 12 12
10 10 10 11 11 11 10 10 10 10 10 10 10 10 10 10 10 10 10 10 10 10 11 11 11 11 11 11 11 11 11 11 11 11 11 11 11 11 11 11 11 11 11 11 11 11 11 11 12
10 9 9 10 10 10 10 9 8 9 10 9 9 9 9 9 9 9 9 10 10 10 10 10 10 10 10 10 10 10 10 11 11 11 11 11 11 11 11 11 11 11 11 11 11 11 11 11 11
9 8 8 9 9 9 9 8 8 9 9 8 8 8 8 8 8 8 9 9 9 9 10 10 10 10 10 10 10 10 10 10 10 10 10 10 10 10 11 11 11 10 10 10 10 10 10 11 11
7 7 8 8 9 8 8 7 7 8 7 7 7 6 6 7 7 8 8 8 9 9 9 9 9 9 9 10 10 10 10 10 10 10 10 10 10 10 10 10 10 10 10 10 10 10 10 10 10
7 7 7 7 8 8 7 6 6 6 6 5 5 5 5 5 6 6 7 8 8 8 8 8 9 9 9 9 9 9 9 9 9 9 9 9 9 9 10 10 10 10 10 10 10 10 9 9 10
7 7 6 7 7 7 6 5 5 5 4 4 4 4 4 4 5 6 6 7 7 8 8 8 8 8 8 8 9 9 9 9 9 9 9 9 9 9 9 9 9 9 9 9 9 9 9 9 9
7 6 6 6 6 6 5 5 4 4 3 3 3 3 3 3 4 5 5 6 6 7 7 7 7 7 7 7 8 8 8 8 8 8 8 8 8 8 8 9 9 9 9 9 9 9 9 9 9
6 6 5 5 5 5 5 4 3 3 3 3 2 2 2 2 3 3 4 4 5 5 6 6 6 6 6 7 7 7 7 8 8 8 8 8 8 8 8 8 8 8 9 9 9 9 9 9 8
5 6 6 5 4 3 5 3 3 3 2 2 1 1 1 1 2 2 3 3 4 4 5 5 5 5 6 6 6 6 6 7 7 7 7 7 7 7 7 7 8 8 8 8 8 8 8 8 8
5 5 5 5 4 3 3 3 2 2 2 1 1 1 1 1 1 1 2 2 3 3 4 4 5 5 5 5 5 5 6 6 6 6 6 7 7 7 7 7 7 7 8 8 8 8 8 8 8
5 4 4 3 2 3 3 3 2 1 1 1 0 0 0 0 0 1 1 2 2 3 3 4 4 4 4 4 5 5 5 5 5 6 6 6 6 6 6 6 7 7 7 7 7 7 7 8 8
4 2 2 2 2 3 3 2 1 1 1 1 0 -0 -0 -0 -0 -0 0 1 1 2 2 3 3 3 4 4 4 4 4 4 5 5 5 5 5 6 6 6 6 6 7 7 7 7 7 7 7
3 3 2 2 2 2 2 1 0 0 0 0 -0 -0 -1 -1 -1 -1 -1 -0 0 1 1 2 2 2 3 3 3 3 4 4 4 5 5 5 5 5 6 6 6 6 6 6 6 6 7 6 7
3 2 2 1 1 0 1 1 0 0 -0 -1 -1 -1 -1 -1 -1 -1 -1 -1 -0 -0 0 0 1 2 2 2 3 3 3 3 4 4 4 4 4 5 5 5 5 5 5 5 6 6 6 6 6
3 2 0 1 1 1 1 0 -0 -1 -2 -2 -2 -2 -2 -2 -2 -2 -2 -2 -1 -1 -0 -0 0 1 1 1 2 2 3 3 3 3 4 4 4 4 4 4 5 5 5 5 5 5 5 5 6
2 2 1 -0 -0 -0 -0 -0 -1 -2 -2 -3 -3 -3 -3 -3 -3 -2 -2 -2 -2 -2 -1 -1 -1 -0 0 1 1 2 2 2 3 3 3 3 3 4 4 4 4 4 4 4 4 5 5 5 5
1 1 -0 -1 -1 -1 -1 -1 -1 -2 -2 -3 -3 -3 -3 -3 -3 -3 -3 -3 -3 -2 -2 -2 -2 -1 -1 -0 0 1 1 2 2 2 3 3 3 3 3 4 4 4 4 4 4 4 4 4 4
Wind_Speed
9 6 3 4 6 5 1 4 2 1 0 1 1 6 6 4 3 4 1 4 8 8 10 12 12 11 11 11 11 10 10 10 10 10 10 10 10 10 10 9 9 9 9 10 10 10 10 10 11
5 3 5 5 5 2 3 4 2 3 3 1 3 5 6 4 3 5 3 4 9 9 10 11 12 12 11 11 11 10 10 9 9 9 9 9 9 9 9 9 9 9 9 9 9 9 9 9 10
5 2 4 5 4 5 5 4 5 3 1 2 3 4 5 4 3 3 3 7 8 8 10 11 12 11 11 11 10 10 9 9 8 8 8 8 8 8 8 9 9 9 9 9 9 9 8 8 8
3 5 5 4 2 4 5 4 3 1 2 3 4 4 3 2 2 3 6 8 9 7 9 11 12 11 11 11 10 9 9 8 8 7 7 7 7 7 7 8 8 8 8 9 9 8 8 7 8
4 4 4 1 3 3 3 3 2 1 0 1 3 4 2 4 4 7 8 8 9 7 8 10 11 11 11 10 9 9 8 7 7 6 6 6 7 7 7 8 8 8 8 8 8 8 8 7 7
4 4 4 2 3 2 3 2 1 1 0 1 3 4 2 2 5 5 7 7 8 7 7 9 10 10 10 9 9 8 8 7 6 6 6 6 6 6 7 7 7 7 7 7 8 7 7 7 7
4 4 4 3 2 2 2 1 2 1 1 1 2 5 1 1 1 4 6 7 7 7 6 6 8 8 9 8 8 8 7 6 6 6 6 6 5 5 6 6 7 6 7 7 7 6 6 6 6
5 4 1 1 3 2 3 1 1 2 1 1 3 5 2 3 0 5 6 6 6 6 5 4 5 6 6 6 7 7 6 6 5 5 6 5 5 5 5 5 6 6 6 6 6 6 6 6 6
4 3 3 3 3 2 2 3 3 2 3 3 3 2 2 2 4 6 6 4 4 4 3 4 4 4 5 5 6 6 6 5 5 5 5 5 4 4 4 5 6 6 6 6 5 5 5 5 5
3 3 4 1 2 1 2 2 3 3 3 3 4 5 4 5 5 5 5 4 3 3 2 2 3 3 3 4 4 4 4 4 4 4 4 3 3 3 3 4 5 5 5 5 5 4 5 5 4
2 4 2 1 1 1 1 3 3 1 1 1 0 0 2 3 4 3 3 3 4 3 2 1 2 2 2 2 3 3 3 3 3 4 4 3 3 2 3 3 3 4 4 4 3 3 3 4 4
1 1 1 1 1 1 1 1 3 0 3 2 2 4 3 3 2 2 2 2 2 2 2 2 2 2 2 2 2 2 3 3 2 3 4 4 3 3 2 2 2 3 3 3 3 3 3 4 4
1 2 2 1 2 1 1 1 1 2 3 1 3 4 3 2 1 0 1 0 1 2 2 2 3 2 2 2 1 2 2 2 3 3 3 4 3 2 2 1 2 2 3 4 3 3 3 3 3
1 2 3 3 2 1 1 3 1 3 1 2 3 2 2 1 1 1 1 1 0 1 2 2 3 3 2 2 2 1 1 2 2 2 3 4 4 3 2 1 1 1 3 4 4 4 3 3 3
2 3 4 3 2 1 1 4 2 3 3 3 2 1 2 2 1 1 1 1 1 1 1 2 3 2 2 2 2 1 2 2 1 1 3 3 3 3 3 2 1 1 3 3 3 3 3 2 2
3 3 3 4 1 1 1 4 3 2 4 2 2 3 4 4 3 3 3 2 1 1 1 2 1 2 2 1 1 1 1 2 2 2 2 3 3 4 3 2 2 2 3 3 3 2 2 2 1
4 1 4 5 2 1 0 3 4 4 4 3 4 4 5 6 7 6 6 4 2 1 1 1 1 2 2 2 1 1 1 2 2 2 2 2 3 3 3 2 2 3 3 2 3 2 2 2 2
2 3 4 5 3 2 2 3 4 4 4 4 4 5 6 7 6 7 7 6 5 3 2 2 1 1 1 1 1 0 0 1 1 2 2 3 3 3 3 2 3 3 2 2 2 3 2 2 2
2 3 5 6 3 3 3 4 4 4 6 6 6 6 6 6 6 8 9 8 8 7 6 4 3 2 0 0 1 1 2 2 2 2 3 3 3 3 3 2 2 3 3 3 3 3 3 1 2
2 3 5 5 4 3 2 3 3 5 5 5 5 6 6 8 10 10 10 9 8 7 7 6 5 3 2 2 2 2 2 3 3 2 3 3 3 4 3 3 3 3 3 3 3 3 2 1 2
4 2 4 6 6 3 0 2 1 3 5 7 7 6 7 8 8 9 9 8 8 8 7 6 6 5 4 3 1 1 0 1 1 2 2 2 4 4 4 3 3 3 3 4 4 4 4 3 1
5 4 5 5 3 4 2 3 2 1 4 7 8 8 8 8 8 8 8 8 8 7 6 6 7 6 6 4 2 1 2 3 3 3 3 3 3 4 4 4 4 4 3 4 4 4 3 5 4
5 6 6 5 3 3 3 3 3 1 4 6 6 7 7 7 7 7 7 7 7 7 6 6 7 7 6 5 4 3 3 3 2 2 3 3 3 4 4 4 4 4 3 4 4 3 3 3 4
4 5 3 2 2 2 4 5 3 1 2 3 5 6 7 8 7 7 8 8 8 8 8 8 7 7 7 6 4 4 3 3 2 2 3 3 3 3 3 4 4 4 3 4 4 4 4 3 3
5 4 4 4 2 4 1 2 1 2 3 2 4 6 7 7 8 9 10 10 10 10 10 9 9 8 8 7 6 5 4 3 4 4 4 3 3 3 4 3 3 4 4 4 3 3 4 4 4
1 3 2 3 4 5 3 2 1 3 4 4 4 5 7 8 8 8 9 8 9 9 9 9 9 8 8 7 7 6 5 3 3 3 3 4 4 4 4 4 3 4 4 4 4 3 3 3 4
0 1 2 2 2 4 4 1 0 4 7 7 7 8 8 8 9 9 9 9 9 9 9 9 9 9 8 8 8 7 6 5 3 3 3 2 3 3 3 3 3 3 4 4 4 3 4 4 4
1 2 3 2 2 4 4 2 2 2 5 7 8 8 9 9 9 10 9 9 8 8 8 8 8 8 8 8 7 7 7 6 4 2 3 3 3 3 3 3 4 3 3 4 4 4 3 4 3
1 1 1 1 2 3 4 3 0 1 2 4 6 8 9 9 9 9 9 9 8 8 8 9 9 9 9 9 8 8 7 6 4 3 3 3 3 3 3 4 4 4 4 4 4 4 4 4 3
2 2 3 2 4 3 3 4 2 2 2 4 6 8 8 9 9 9 9 9 9 10 10 10 9 9 9 9 8 7 7 6 5 4 4 4 3 3 3 3 3 4 4 4 5 5 4 4 4
Wind_Direction
339 350 67 57 58 55 240 267 244 333 51 261 95 101 105 92 111 143 162 131 131 140 145 141 135 130 124 118 114 113 110 109 108 109 110 110 112 111 109 108 109 107 104 103 101 102 100 99 99
342 22 55 61 91 109 269 262 209 227 210 161 69 87 85 78 82 110 114 140 133 137 141 140 135 130 124 119 115 113 108 105 106 107 110 109 110 112 110 109 109 107 105 103 103 103 102 103 105
342 56 79 77 121 175 200 217 198 227 273 100 68 62 97 113 119 139 161 143 128 128 137 140 137 133 127 123 119 116 112 107 104 107 108 111 112 113 113 109 106 106 108 105 103 105 106 107 110
52 47 58 79 188 223 198 210 192 167 10 47 105 74 68 40 152 150 136 128 127 125 132 143 141 137 132 127 124 121 118 114 109 106 108 111 111 112 113 110 108 108 109 108 105 106 108 109 111
61 77 72 52 239 252 241 231 184 142 144 21 110 112 75 353 75 112 120 121 127 130 133 142 140 140 137 133 131 129 126 123 117 113 111 113 112 112 115 111 110 112 113 115 112 108 106 109 112
56 72 105 203 226 258 293 289 140 89 71 34 106 119 119 6 84 113 117 118 124 131 132 144 143 138 140 137 136 133 128 127 124 119 118 112 114 117 122 119 114 116 116 119 120 115 107 102 105
107 109 165 189 200 260 292 346 99 122 78 305 133 125 135 354 73 116 113 111 110 115 115 126 136 137 138 141 137 136 134 131 125 120 118 112 107 118 126 129 127 122 122 121 120 118 114 105 104
125 114 158 205 185 235 310 12 62 86 187 340 101 133 178 252 270 91 92 97 99 100 101 105 114 123 128 132 134 129 132 134 128 123 123 118 114 115 129 133 134 130 125 126 127 122 114 107 103
93 93 198 207 179 227 343 29 352 8 65 35 48 123 188 140 99 90 81 76 89 94 95 101 101 109 123 130 132 126 119 117 120 121 125 117 114 115 124 136 135 134 131 132 130 126 117 109 104
92 170 214 219 172 157 360 16 342 26 23 18 22 21 51 89 100 107 122 133 136 139 129 114 112 105 115 134 126 122 119 109 103 111 118 112 112 118 128 138 141 138 135 140 137 128 119 110 98
128 190 209 291 339 101 9 354 358 75 343 272 239 35 72 72 94 117 149 164 176 172 151 133 118 104 107 106 123 115 112 107 97 102 114 113 101 95 99 115 129 135 136 130 129 117 116 114 111
146 251 203 269 341 11 334 331 351 342 234 255 168 142 120 108 117 154 171 199 185 172 180 164 124 113 109 107 109 123 120 112 103 108 111 109 99 91 98 108 131 136 140 130 124 118 120 119 121
248 264 324 1 30 358 26 336 304 289 277 336 84 100 118 137 160 246 225 181 147 176 183 172 143 133 122 103 98 115 127 135 139 134 128 123 116 111 108 113 133 151 151 146 137 131 131 125 123
263 297 292 296 303 309 334 310 328 293 334 46 80 111 139 140 156 28 2 5 1 218 207 185 163 152 132 122 119 136 148 152 145 146 153 143 136 132 132 130 133 161 168 164 152 151 147 139 130
17 353 331 297 272 257 26 335 276 297 40 43 32 42 40 22 32 12 295 278 246 245 220 189 179 152 143 144 149 149 157 149 139 167 171 159 152 152 152 154 162 175 170 156 141 140 134 138 137
22 23 319 306 315 328 87 271 315 352 66 36 8 29 35 25 18 358 340 325 303 274 232 212 191 173 163 152 157 166 171 158 161 180 180 169 166 169 158 165 183 178 158 146 143 154 144 145 147
26 335 277 301 329 324 189 260 327 6 52 35 20 21 22 20 15 7 3 358 348 333 257 242 215 193 191 176 162 178 180 178 184 183 183 182 168 170 161 174 182 173 149 146 164 152 156 154 149
278 283 277 280 312 322 261 264 325 6 55 44 25 21 24 21 6 3 8 9 9 6 10 6 319 223 208 155 138 170 209 259 223 205 206 197 188 186 173 174 173 161 159 160 159 149 146 158 161
247 261 280 278 306 318 259 275 322 17 35 33 25 25 21 6 3 15 15 14 16 16 11 360 4 339 239 205 198 208 233 243 250 241 219 206 203 201 189 187 176 174 181 176 162 151 149 144 144
316 290 293 299 319 298 262 295 12 43 46 43 38 26 17 13 13 13 12 15 15 11 4 2 351 336 316 262 232 219 223 229 235 246 231 214 214 212 207 191 188 186 180 166 162 151 161 165 158
315 255 273 293 325 317 225 291 55 27 48 41 36 29 24 25 14 7 8 6 8 5 359 353 350 342 331 327 313 328 303 283 260 257 231 245 231 222 214 206 193 192 184 179 179 175 173 179 193
284 281 287 290 319 284 217 262 259 353 29 28 22 21 15 12 13 9 6 3 359 350 349 356 354 350 342 337 331 304 240 248 258 236 234 244 240 232 219 209 204 201 196 187 188 181 180 174 187
264 293 284 268 229 274 246 214 283 23 15 11 12 14 6 5 8 4 358 353 351 350 351 353 354 351 347 343 331 302 283 266 275 244 232 231 237 232 226 213 208 205 201 194 192 183 184 187 189
312 339 346 28 99 261 243 187 284 331 325 355 5 5 358 360 360 355 353 356 356 357 356 355 354 346 343 347 337 321 294 283 270 263 242 240 234 233 230 223 214 210 203 196 196 189 190 197 195
29 42 8 352 340 257 309 154 245 24 49 47 16 2 358 359 0 357 356 356 354 354 355 354 352 346 342 341 335 325 303 272 251 246 233 242 240 240 224 230 216 216 210 199 190 189 198 199 196
318 128 160 246 258 289 327 199 202 38 45 43 29 13 5 1 359 358 356 352 347 347 349 348 345 340 340 339 333 330 318 296 278 266 248 236 240 240 219 225 221 221 208 202 193 195 204 202 203
23 210 189 172 271 269 271 243 215 32 27 22 16 11 2 355 353 353 352 351 349 346 343 339 338 334 335 336 331 330 324 309 292 290 273 241 248 253 228 217 221 217 204 202 197 205 206 201 208
116 143 83 124 259 273 287 259 265 336 360 4 4 358 351 351 354 352 350 348 345 342 338 339 337 332 331 333 330 329 326 317 308 301 309 286 257 250 237 217 211 207 207 204 198 204 202 199 215
51 62 120 175 196 218 275 275 301 159 4 358 351 348 346 346 348 347 345 346 345 343 344 343 339 337 335 332 330 332 332 328 324 318 312 303 277 251 240 225 208 206 208 205 201 202 197 199 215
161 184 146 181 262 231 235 267 35 64 30 10 351 348 348 347 347 345 343 347 349 348 345 341 339 336 331 328 329 331 328 330 327 321 312 311 292 278 251 230 220 215 213 208 201 201 201 200 207
Height
1517 1517 1518 1520 1524 1536 1535 1528 1521 1519 1517 1516 1516 1516 1518 1521 1525 1531 1528 1526 1528 1530 1531 1533 1534 1535 1536 1537 1538 1539 1539 1540 1541 1541 1541 1542 1542 1543 1543 1543 1544 1544 1545 1546 1546 1547 1547 1547 1548
1517 1518 1520 1520 1531 1542 1536 1525 1521 1517 1516 1516 1516 1517 1518 1521 1523 1525 1526 1527 1529 1530 1531 1532 1534 1535 1536 1537 1538 1538 1539 1540 1540 1541 1541 1542 1542 1543 1543 1544 1544 1545 1545 1546 1546 1547 1547 1548 1548
1518 1518 1520 1523 1533 1536 1529 1521 1518 1516 1515 1515 1517 1518 1520 1523 1524 1525 1526 1527 1529 1530 1531 1532 1533 1535 1536 1537 1537 1538 1539 1539 1540 1541 1541 1542 1542 1543 1543 1544 1544 1545 1545 1546 1546 1547 1548 1548 1549
1518 1520 1521 1528 1529 1526 1521 1518 1516 1516 1516 1516 1517 1519 1522 1524 1525 1525 1526 1527 1529 1530 1531 1532 1533 1534 1535 1536 1537 1538 1538 1539 1540 1540 1541 1542 1542 1543 1543 1544 1544 1545 1545 1546 1546 1547 1548 1549 1549
1518 1519 1526 1532 1527 1522 1519 1517 1516 1516 1516 1517 1517 1520 1522 1524 1524 1525 1526 1527 1528 1529 1531 1532 1533 1534 1535 1536 1537 1537 1538 1539 1539 1540 1540 1541 1542 1542 1543 1543 1544 1545 1545 1545 1546 1547 1548 1549 1550
1518 1520 1532 1533 1526 1521 1518 1517 1517 1517 1517 1518 1518 1520 1523 1525 1525 1525 1526 1527 1528 1529 1530 1531 1532 1533 1534 1535 1536 1537 1537 1538 1538 1539 1540 1540 1541 1542 1542 1543 1543 1544 1545 1545 1546 1547 1548 1548 1549
1519 1524 1529 1527 1525 1522 1519 1517 1517 1517 1517 1519 1519 1521 1523 1524 1525 1525 1526 1527 1528 1528 1529 1530 1532 1532 1533 1534 1535 1536 1537 1537 1537 1538 1539 1539 1540 1541 1541 1542 1543 1543 1544 1545 1546 1546 1547 1548 1549
1518 1523 1525 1526 1524 1522 1519 1517 1518 1518 1518 1519 1519 1520 1522 1523 1524 1525 1525 1526 1527 1528 1529 1529 1531 1532 1532 1533 1534 1535 1535 1536 1537 1537 1538 1539 1539 1540 1541 1541 1542 1543 1543 1544 1545 1546 1547 1548 1548
1518 1526 1527 1524 1522 1521 1518 1518 1519 1519 1519 1519 1520 1521 1521 1522 1523 1524 1524 1525 1526 1527 1527 1528 1529 1530 1531 1532 1533 1534 1534 1535 1536 1536 1537 1537 1538 1539 1540 1540 1541 1542 1542 1543 1544 1545 1546 1547 1548
1518 1526 1523 1520 1520 1520 1519 1519 1519 1519 1519 1520 1520 1520 1521 1521 1521 1522 1522 1523 1524 1525 1526 1527 1528 1529 1530 1531 1532 1532 1533 1533 1534 1535 1535 1536 1537 1537 1538 1539 1540 1541 1541 1542 1543 1544 1545 1546 1547
1518 1521 1520 1519 1519 1519 1519 1519 1519 1519 1520 1520 1520 1520 1520 1520 1520 1520 1521 1522 1523 1524 1525 1526 1527 1528 1528 1529 1530 1531 1531 1532 1532 1533 1534 1534 1535 1536 1537 1537 1538 1539 1540 1541 1542 1543 1543 1545 1546
1519 1519 1519 1519 1519 1519 1519 1519 1520 1520 1521 1520 1519 1519 1518 1518 1519 1519 1520 1521 1522 1523 1523 1524 1525 1526 1527 1528 1528 1529 1529 1530 1530 1531 1532 1532 1533 1534 1535 1535 1536 1537 1538 1539 1540 1541 1542 1543 1544
1519 1519 1519 1519 1519 1519 1519 1519 1520 1520 1519 1519 1518 1517 1517 1518 1518 1519 1519 1520 1520 1521 1521 1522 1523 1524 1525 1526 1526 1527 1527 1528 1528 1529 1530 1530 1531 1532 1532 1533 1534 1535 1536 1537 1538 1539 1540 1541 1542
1519 1519 1519 1519 1518 1518 1519 1519 1519 1519 1518 1517 1516 1516 1516 1516 1517 1517 1517 1518 1518 1519 1519 1520 1521 1522 1523 1524 1524 1525 1526 1526 1527 1527 1528 1528 1529 1530 1530 1531 1532 1533 1534 1535 1536 1537 1538 1540 1541
1519 1520 1519 1518 1518 1518 1518 1520 1519 1518 1517 1516 1516 1515 1515 1515 1515 1515 1516 1516 1516 1517 1517 1518 1519 1520 1520 1521 1522 1523 1523 1524 1524 1525 1525 1526 1527 1527 1528 1529 1530 1531 1532 1533 1534 1535 1536 1538 1539
1520 1523 1525 1520 1518 1518 1522 1523 1520 1519 1517 1516 1516 1515 1514 1514 1514 1514 1514 1514 1514 1514 1515 1515 1516 1517 1517 1518 1519 1520 1521 1521 1522 1522 1523 1523 1524 1525 1526 1527 1527 1528 1529 1530 1532 1533 1534 1535 1536
1527 1530 1526 1522 1519 1519 1521 1522 1520 1519 1517 1517 1516 1515 1514 1513 1513 1512 1512 1512 1512 1512 1512 1512 1513 1514 1514 1515 1516 1517 1518 1518 1519 1519 1520 1520 1521 1522 1523 1524 1525 1526 1527 1528 1529 1530 1532 1532 1534
1530 1530 1527 1525 1521 1521 1522 1522 1521 1519 1518 1517 1516 1515 1514 1512 1512 1511 1510 1510 1510 1510 1510 1510 1510 1511 1511 1512 1513 1513 1514 1515 1516 1516 1517 1517 1518 1519 1520 1521 1522 1523 1524 1525 1526 1528 1529 1531 1531
1527 1527 1527 1524 1521 1522 1522 1522 1521 1519 1518 1517 1517 1515 1514 1513 1512 1510 1509 1508 1508 1507 1507 1508 1508 1507 1508 1508 1508 1509 1510 1511 1512 1513 1513 1514 1515 1516 1517 1518 1519 1520 1521 1522 1523 1525 1526 1528 1529
1526 1527 1527 1523 1521 1521 1523 1523 1522 1521 1520 1519 1518 1516 1515 1512 1510 1509 1508 1507 1506 1505 1505 1505 1505 1505 1505 1505 1505 1505 1507 1507 1508 1509 1510 1510 1511 1512 1514 1515 1515 1516 1518 1518 1520 1521 1523 1525 1527
1526 1527 1527 1526 1523 1520 1523 1524 1524 1523 1521 1520 1519 1517 1515 1513 1511 1509 1508 1506 1505 1504 1503 1503 1502 1502 1502 1502 1502 1502 1503 1503 1504 1505 1505 1506 1508 1509 1510 1511 1512 1513 1514 1515 1516 1518 1520 1521 1523
1528 1524 1524 1523 1527 1529 1524 1529 1525 1524 1523 1522 1520 1518 1516 1514 1512 1510 1508 1506 1504 1503 1502 1501 1500 1500 1500 1499 1499 1498 1498 1498 1499 1500 1501 1502 1504 1505 1506 1507 1508 1509 1510 1511 1513 1515 1516 1518 1519
1526 1523 1523 1522 1525 1528 1525 1528 1528 1524 1524 1523 1522 1520 1518 1515 1513 1510 1508 1506 1504 1502 1501 1499 1498 1498 1497 1497 1496 1495 1495 1495 1496 1496 1497 1498 1500 1501 1502 1503 1504 1505 1507 1508 1509 1511 1513 1514 1516
1525 1524 1523 1525 1528 1530 1523 1528 1529 1528 1526 1525 1523 1521 1518 1515 1513 1511 1508 1505 1503 1501 1499 1497 1496 1495 1494 1493 1493 1492 1492 1492 1492 1492 1492 1493 1494 1496 1497 1498 1500 1501 1503 1504 1505 1506 1509 1510 1512
1528 1533 1536 1535 1535 1530 1523 1527 1532 1528 1526 1525 1524 1521 1519 1516 1513 1510 1507 1504 1502 1499 1497 1496 1494 1492 1491 1490 1489 1489 1488 1488 1488 1488 1488 1489 1490 1491 1492 1494 1495 1496 1498 1499 1501 1502 1504 1506 1507
1531 1534 1540 1541 1538 1533 1526 1529 1533 1529 1527 1526 1525 1523 1519 1516 1514 1511 1507 1504 1502 1499 1496 1494 1492 1490 1488 1487 1486 1485 1485 1484 1484 1484 1485 1485 1486 1486 1487 1489 1490 1492 1493 1495 1497 1498 1500 1501 1503
1532 1535 1535 1540 1540 1541 1531 1531 1531 1529 1528 1526 1524 1522 1519 1517 1514 1510 1507 1504 1501 1498 1495 1493 1490 1488 1486 1484 1483 1481 1481 1480 1480 1480 1481 1481 1482 1483 1483 1485 1486 1488 1489 1491 1492 1494 1495 1497 1498
1532 1534 1540 1541 1541 1539 1533 1533 1532 1532 1530 1527 1525 1523 1520 1517 1513 1510 1507 1504 1500 1497 1494 1491 1489 1486 1484 1482 1480 1478 1477 1476 1476 1476 1476 1477 1477 1478 1479 1480 1482 1483 1485 1486 1488 1489 1491 1492 1494
1535 1536 1537 1541 1542 1542 1539 1537 1531 1531 1530 1529 1527 1524 1520 1517 1513 1510 1506 1503 1500 1496 1493 1490 1486 1484 1481 1479 1477 1475 1474 1473 1473 1472 1473 1473 1473 1474 1475 1476 1477 1479 1481 1482 1483 1485 1486 1488 1489
1534 1536 1539 1544 1543 1543 1543 1541 1531 1530 1529 1529 1527 1524 1521 1517 1513 1510 1506 1502 1498 1494 1491 1488 1484 1481 1479 1477 1474 1472 1471 1470 1469 1469 1469 1469 1470 1470 1471 1472 1473 1474 1476 1478 1479 1480 1482 1483 1484